Regional Weather Roundup
Issued by NWS

Home | Current Version | Previous Version | Text Only | Print | Product List | Glossary Off
Versions: 1 2 3 4 5 6 7 8 9 10 11 12 13 14 15 16 17 18 19 20 21 22 23 24 25 26 27 28 29 30 31 32 33 34 35 36 37 38 39 40 41 42 43 44 45 46 47 48 49 50

000
ASUS43 KDMX 311307
RWRIA

WEATHER ROUNDUP FOR IOWA
NATIONAL WEATHER SERVICE DES MOINES IA
800 AM CDT SUN AUG 31 2014

NOTE: "FAIR" INDICATES FEW OR NO CLOUDS BELOW 12,000 FEET WITH NO
SIGNIFICANT WEATHER AND/OR OBSTRUCTIONS TO VISIBILITY.

* - THESE STATIONS ARE NOT NWS STATIONS...THUS NOT UNDER NWS
QUALITY CONTROL.  THEY ALSO DO NOT REPORT WEATHER SUCH
AS PRECIPITATION OR FOG.

IAZ001>003-012>014-020>022-031>034-043>046-311400-
   NORTHWEST IOWA

CITY           SKY/WX    TMP DP  RH WIND       PRES   REMARKS
CARROLL *      SUNNY     64  64 100 VRB3      29.82F
CHEROKEE *     MOSUNNY   66  66 100 S6        29.77S
DENISON *      MOSUNNY   70  66  88 S7G15     29.79R
LE MARS *      SUNNY     70  66  88 S9G16     29.74S
ORANGE CITY *  SUNNY     70  64  83 SE6       29.74F
SHELDON *      SUNNY     66  66 100 S15G25    29.73F
SIOUX CITY     SUNNY     69  65  86 SE13      29.72F
SPENCER        PTSUNNY   67  64  90 S16       29.78F
STORM LAKE *   SUNNY     64  64 100 S10       29.80S FOG
$$

IAZ055>058-069>071-079>083-090>094-311400-
   SOUTHWEST IOWA

CITY           SKY/WX    TMP DP  RH WIND       PRES   REMARKS
ATLANTIC *     SUNNY     72  66  83 S12       29.83S
AUDUBON *      SUNNY     72  68  88 S6        29.84S
CLARINDA *     SUNNY     70  68  94 S6        29.86F
COUNCIL BLFS * SUNNY     68  68 100 S10       29.81R
CRESTON *      SUNNY     70  68  94 S10G16    29.88S
HARLAN  *      SUNNY     70  68  94 S10       29.85S
LAMONI         SUNNY     69  66  90 S9        29.89S
RED OAK *      SUNNY     70  68  94 S9        29.84S
SHENANDOAH *   SUNNY     70  66  88 S12G17    29.83F
$$

IAZ047>049-059>061-072>074-084-311400-
   CENTRAL IOWA

CITY           SKY/WX    TMP DP  RH WIND       PRES   REMARKS
AMES           SUNNY     65  65 100 SE7       29.86F FOG
ANKENY *       SUNNY     68  68 100 S7        29.87R
CHARITON *     SUNNY     68  66  94 S7        29.89S
DES MOINES     MOSUNNY   70  66  87 S8        29.86S
GRINNELL*      SUNNY     68  66  94 S8        29.91R
KNOXVILLE *    SUNNY     68  66  94 SE9       29.88S
MARSHALLTOWN   SUNNY     66  65  96 SE8       29.88S
PELLA *        SUNNY     68  68 100 SE6       29.90F
PERRY *          N/A     68  66  94 S9        29.84F
$$

IAZ004>006-015-016-023>025-035-036-311400-
   NORTH CENTRAL IOWA

CITY           SKY/WX    TMP DP  RH WIND       PRES   REMARKS
ALGONA *       MOSUNNY   64  63  94 S14       29.83R
CLARION *      MOSUNNY   66  64  94 SE12      29.85S
ESTHERVILLE    PTSUNNY   65  63  93 S15       29.79S
FORT DODGE *   MOSUNNY   66  63  88 SE7       29.84F
MASON CITY     PTSUNNY   66  64  93 S10       29.88S
FOREST CITY *  MOSUNNY   64  64 100 SE10      29.84F
IOWA FALLS *     N/A     64  64 100 SE8       29.88F FOG
$$

IAZ007>011-017>019-026>030-037>042-050>054-066-311400-
   NORTHEAST IOWA

CITY           SKY/WX    TMP DP  RH WIND       PRES   REMARKS
CEDAR RAPIDS   SUNNY     67  67 100 S5        29.91R FOG
CHARLES CITY * MOSUNNY   64  64 100 SE8       29.89S
CLINTON *      SUNNY     66  64  94 SE6       29.95S
DECORAH *      PTSUNNY   63  63 100 SE6       29.90S FOG
DUBUQUE        MOSUNNY   68  66  93 SW3       29.94R
MONTICELLO *   SUNNY     66  66 100 VRB3      29.92R
OELWEIN *      PTSUNNY   66  66 100 SE8       29.91S FOG
WATERLOO       PTSUNNY   66  65  96 S7        29.88S FOG
$$

IAZ064-065-067-068-078-311400-
   EAST CENTRAL IOWA

CITY           SKY/WX    TMP DP  RH WIND       PRES   REMARKS
DAVENPORT      SUNNY     69  67  93 S5        29.93F FOG
IOWA CITY      PTSUNNY   65  65 100 SE5       29.93R
MT. PLEASANT * SUNNY     70  68  94 S7        29.93S
MUSCATINE *    FOG       66  64  94 CALM      29.92S VSB 0
QUAD CITIES    SUNNY     68  66  93 E3        29.92F FOG
$$

IAZ062-063-075>077-085>089-095>099-311400-
   SOUTHEAST IOWA

CITY           SKY/WX    TMP DP  RH WIND       PRES   REMARKS
BURLINGTON     SUNNY     69  69 100 S3        29.93R
FAIRFIELD *    SUNNY     70  66  88 S6        29.92S
FORT MADISON * FOG       72  72 100 S3        29.94S VSB 1/4
KEOKUK *       FOG       70  70 100 SW6       29.93S VSB 0
OSKALOOSA *      N/A     66  66 100 S5        29.91S
CENTERVILLE *  SUNNY     68  68 100 SE7       29.92F
OTTUMWA        SUNNY     69  67  93 S6        29.91R
WASHINGTON *   SUNNY     68  68 100 S6        29.92S FOG
$$

ABBREVIATIONS USED IN REMARKS
   TC - TEMPERATURES IN CELSIUS
  WCI - WIND CHILL INDEX
   HX - HEAT INDEX
  VSB - VISIBILITY
$$



USA.gov is the U.S. government's official web portal to all federal, state and local government web resources and services.